Location: San Pelegr�n
(42.1868°N, 0.0079°E)
Time: 15:37:51
(UTC+00:00)

H-2A R/B - Pass Details

Date: 24 January 2020
Orbit: 734 x 836 km, 98.2° (Epoch: 24 February)

Event Time Altitude Azimuth Distance (km) Brightness Sun altitude
Exits shadow 19:30:15 21° 360° (N) 1,699 3.7 -27.1°
Drops below altitude 10° 19:31:53 10° 355° (N) 2,323 4.5 -27.4°
Sets 19:34:15 0° 351° (N) 3,270 5.4 -27.8°
